Volver al catálogo

FENGYUN 1C DEB

ActivoSSO
NORAD 30320·DEBRIS·🇨🇳 China

Lanzado May 10, 1999 desde Taiyuan Satellite Launch Center

Loading…

Próximos Pases (próximas 24 horas)

TLE

ActualizadoSource: Space-Track

Época: Sep 14, 2026, 15:53 UTC

1 30320U 99025AAH 26257.66244698 -.00000057  00000-0 -79340-5 0  9992
2 30320  99.1540 321.9323 0084937 257.9217 256.6546 13.98697757  2531

Sigue FENGYUN 1C DEB en tiempo real con AllMySat

Download on the App Store